sat.trackr.live / text

‹ back to catalog

STARLINK-31730

NORAD 59555 · 2024-074X

PAYLOAD ACTIVE UNKNOWN

§ Identity

Operator
Country
US
Launch date
2024-04-18
Launch site
AFETR
Launch vehicle
Mass (kg)
RCS (m²)

Purposes: comms

External: N2YO · Heavens-Above · Gunter

§ Orbital elements

Epoch: 2026-05-24T18:10:43.536576Z

Period
94.27 min
Inclination
43.0000°
Eccentricity
0.0001068
Mean motion
15.27572563 rev/d
Perigee alt
482.3 km
Apogee alt
483.8 km
Semi-major
6,861.2 km
B*
-2.4494e-5
RAAN
274.2968°
Arg perigee
262.8184°
Mean anomaly
97.2546°
Rev number
11,764

§ Raw data

STARLINK-317301 59555U 24074X   26144.75744834 -.00000936  00000+0 -24494-4 0  99912 59555  43.0000 274.2968 0001068 262.8184  97.2546 15.27572563117647

JSON: /api/v1/satellites/59555 · /tle

For live sub-satellite position, see the globe view (requires WebGL).

§ Visibility from observer

Set your observer location to see the next 7 days of passes ≥ 10°. The values pass through the URL so the page stays shareable.

No JS? Fill the form by hand. The geolocation button needs JavaScript.